Location: Stara Lesna
(49.1528°N, 20.2911°E)
Time: 14:11:04
(UTC+02:00)

ADEOS II - Pass Details

Date: 21 September 2019
Orbit: 799 x 801 km, 98.5° (Epoch: 20 October)

Event Time Altitude Azimuth Distance (km) Brightness Sun altitude
Rises 05:01:50 0° 3° (N) 3,321 5.6 -13.9°
Reaches altitude 10° 05:04:48 10° 347° (NNW) 2,386 4.6 -13.4°
Maximum altitude 05:08:22 19° 304° (WNW) 1,839 3.6 -12.9°
Enters shadow 05:10:25 15° 276° (W) 2,034 3.6 -12.5°
